This demonstration page uses our WeatherBlox Daily Observations layout. Learn more.

Left ArrowRight Arrow

38.83388, -104.82136

Hourly Observations for January 30, 2015

Temp ( °F °C ) Dew Point ( °F °C ) Humidity (%) Winds ( mph kmh ) Pressure ( in mb ) Visibility ( mi km ) Precip ( " mm )
12:56 am 00:56 Cloudy 33 0.8 21 -5.9 61 61 SSW 8 13 30.02 1017 10 16 N/A
1:56 am 01:56 Mostly Cloudy 31 -0.5 22 -5.4 70 70 N 2 4 30.03 1017 10 16 N/A
2:56 am 02:56 Mostly Clear 29 -1.6 22 -5.4 76 76 WSW 2 4 30.01 1016 10 16 N/A
3:56 am 03:56 Mostly Cloudy 28 -2.3 22 -5.7 78 78 NNW 3 6 30.00 1016 10 16 N/A
4:56 am 04:56 Partly Cloudy 28 -2 22 -5.5 77 77 ENE 1 2 29.98 1015 10 16 N/A
5:56 am 05:56 Mostly Cloudy 28 -2.3 22 -5.5 79 79 ENE 1 2 29.97 1015 10 16 N/A
6:56 am 06:56 Cloudy 29 -1.9 22 -5.5 77 77 S 5 7 29.97 1015 10 16 N/A
7:56 am 07:56 Mostly Cloudy 29 -1.8 22 -5.3 77 77 SSE 3 6 29.96 1015 10 16 N/A
8:56 am 08:56 Partly Cloudy 30 -1.3 24 -4.5 79 79 ESE 2 4 29.95 1014 10 16 N/A
9:56 am 09:56 Mostly Sunny 29 -1.4 24 -4.4 80 80 NE 5 7 29.95 1014 10 16 N/A
10:56 am 10:56 Partly Cloudy 31 -0.6 24 -4.4 76 76 N 2 4 29.93 1014 10 16 N/A
11:56 am 11:56 Partly Cloudy 35 1.6 25 -3.9 67 67 ESE 2 4 29.88 1012 10 16 N/A
12:56 pm 12:56 Partly Cloudy 35 1.8 25 -3.7 67 67 NE 5 7 29.85 1011 10 16 N/A
1:56 pm 13:56 Partly Cloudy 36 2.4 25 -3.7 64 64 NE 3 6 29.82 1010 10 16 N/A
2:56 pm 14:56 Mostly Cloudy 36 2.1 26 -3.5 67 67 SSE 2 4 29.83 1010 10 16 N/A
3:56 pm 15:56 Cloudy 35 1.8 26 -3.1 70 70 ENE 1 2 29.81 1010 10 16 N/A
4:56 pm 16:56 Cloudy 35 1.5 26 -3.4 70 70 Calm 29.80 1009 10 16 N/A
5:56 pm 17:56 Cloudy 38 3.4 27 -3 63 63 NNW 10 17 29.81 1010 10 16 N/A
6:56 pm 18:56 Cloudy 38 3.6 25 -3.8 59 59 NW 13 20 29.80 1009 10 16 N/A
7:56 pm 19:56 Cloudy 37 2.9 27 -3 66 66 NNW 13 20 29.78 1009 10 16 N/A
8:27 pm 20:27 Cloudy with Light Rain 36 2 28 -2 75 75 N 16 26 29.74 1007 10 16 N/A
8:56 pm 20:56 Cloudy with Light Rain/Snow 35 1.9 29 -1.6 78 78 NNW 16 26 29.79 1009 10 16 N/A
9:52 pm 21:52 Cloudy 37 3 28 -2 70 70 NNW 10 17 29.71 1006 10 16 N/A
9:56 pm 21:56 Cloudy 37 2.5 28 -2.4 70 70 NNW 10 17 29.78 1008 10 16 N/A
10:56 pm 22:56 Cloudy 38 3.2 27 -2.9 65 65 NW 13 20 29.74 1007 10 16 N/A
11:56 pm 23:56 Cloudy 36 2.2 29 -1.9 75 75 N 8 13 29.70 1006 10 16 N/A

Powered by AerisWeather